This is the latest recevied weather packets stored in our database for station/object YB2YEN-13. If no packets are shown the sender has not sent any weather packets the latest 10 day(s).
| Time | Temp. | Humidity | Pressure | Rain* | Wind** | Luminosity | Snow |
|---|---|---|---|---|---|---|---|
| 1777876401 | 32.78° C | 79% | 977 hPa | - | - | 0 W/m² | - |
| 1777876079 | 32.78° C | 80% | 977 hPa | - | - | 0 W/m² | - |
| 1777875757 | 32.78° C | 86% | 977 hPa | - | - | 0 W/m² | - |
| 1777875435 | 32.78° C | 88% | 977 hPa | - | - | 0 W/m² | - |
| 1777875113 | 32.78° C | 86% | 977 hPa | - | - | 0 W/m² | - |
| 1777873598 | 33.33° C | 84% | 977 hPa | - | - | 0 W/m² | - |
| 1777873276 | 31.67° C | 93% | 977 hPa | - | - | 0 W/m² | - |
| 1777872954 | 32.78° C | 91% | 978 hPa | - | - | 0 W/m² | - |
| 1777872631 | 32.22° C | 93% | 978 hPa | - | - | 0 W/m² | - |
| 1777872310 | 31.67° C | 87% | 978 hPa | - | - | 0 W/m² | - |
| 1777871988 | 33.33° C | 90% | 978 hPa | - | - | 0 W/m² | - |
| 1777871665 | 32.78° C | 77% | 978 hPa | - | - | 0 W/m² | - |
| 1777871343 | 33.33° C | 87% | 978 hPa | - | - | 0 W/m² | - |
| 1777871021 | 33.33° C | 76% | 978 hPa | - | - | 0 W/m² | - |
| 1777870699 | 32.78° C | 87% | 978 hPa | - | - | 0 W/m² | - |
| 1777870377 | 33.33° C | 82% | 978 hPa | - | - | 0 W/m² | - |
| 1777870055 | 32.78° C | 85% | 979 hPa | - | - | 0 W/m² | - |
| 1777869733 | 31.67° C | 85% | 979 hPa | - | - | 0 W/m² | - |
| 1777869411 | 32.78° C | 83% | 979 hPa | - | - | 0 W/m² | - |
| 1777869089 | 32.22° C | 90% | 979 hPa | - | - | 0 W/m² | - |
| 1777868767 | 32.78° C | 87% | 979 hPa | - | - | 0 W/m² | - |
| 1777868445 | 32.22° C | 87% | 979 hPa | - | - | 0 W/m² | - |
| 1777868123 | 32.22° C | 91% | 979 hPa | - | - | 0 W/m² | - |
| 1777867801 | 32.78° C | 90% | 979 hPa | - | - | 0 W/m² | - |
| 1777867479 | 31.67° C | 89% | 979 hPa | - | - | 0 W/m² | - |
* Rain since midnight (hover to see other rain measurements)
** Current wind speed in m/s (hover to see current wind gust speed)